• In Uzbekistan
  • List of Countries
  • For 7 days
  • Water Temperature
  • Satellite Maps
  • Weather Map
  • Weather Widgets
  • user-avatar
    Login

    Hourly Weather Banbury

    Today, 22 October, Monday

    Time Temperature Precipitation Wind Pressure Humidity
    00:00 +8°C° 0 mm 4 mps 763 mmHg 78%
    01:00 +7°C° 0 mm 4 mps 764 mmHg 79%
    02:00 +7°C° 0 mm 4 mps 764 mmHg 80%
    03:00 +6°C° 0 mm 4 mps 764 mmHg 81%
    04:00 +6°C° 0 mm 4 mps 765 mmHg 81%
    05:00 +5°C° 0 mm 4 mps 765 mmHg 82%
    06:00 +5°C° 0 mm 3 mps 766 mmHg 82%
    07:00 +6°C° 0 mm 4 mps 766 mmHg 77%
    08:00 +7°C° 0 mm 4 mps 767 mmHg 72%
    09:00 +8°C° 0 mm 5 mps 767 mmHg 68%
    10:00 +9°C° 0 mm 5 mps 767 mmHg 63%
    11:00 +11°C° 0 mm 4 mps 767 mmHg 59%
    12:00 +11°C° 0 mm 4 mps 768 mmHg 55%
    13:00 +11°C° 0 mm 4 mps 767 mmHg 56%
    14:00 +12°C° 0 mm 4 mps 767 mmHg 57%
    15:00 +12°C° 0 mm 3 mps 767 mmHg 58%
    16:00 +10°C° 0 mm 3 mps 767 mmHg 64%
    17:00 +9°C° 0 mm 2 mps 767 mmHg 70%
    18:00 +8°C° 0 mm 2 mps 767 mmHg 76%
    19:00 +8°C° 0 mm 2 mps 767 mmHg 79%
    20:00 +7°C° 0 mm 2 mps 767 mmHg 82%
    21:00 +7°C° 0 mm 3 mps 767 mmHg 84%
    22:00 +7°C° 0 mm 3 mps 767 mmHg 85%
    23:00 +7°C° 0 mm 3 mps 766 mmHg 86%

    Tomorrow, 23 October, Tuesday

    Time Temperature Precipitation Wind Pressure Humidity
    00:00 +5°C° 0 mm 3 mps 766 mmHg 87%
    01:00 +5°C° 0 mm 3 mps 766 mmHg 88%
    02:00 +5°C° 0 mm 4 mps 765 mmHg 89%
    03:00 +5°C° 0 mm 4 mps 765 mmHg 90%
    04:00 +5°C° 0 mm 4 mps 765 mmHg 91%
    05:00 +6°C° 0 mm 4 mps 764 mmHg 91%
    06:00 +6°C° 0 mm 4 mps 764 mmHg 92%
    07:00 +7°C° 0 mm 4 mps 764 mmHg 87%
    08:00 +8°C° 0 mm 5 mps 764 mmHg 82%
    09:00 +9°C° 0 mm 6 mps 764 mmHg 77%
    10:00 +10°C° 0 mm 6 mps 764 mmHg 71%
    11:00 +13°C° 0 mm 6 mps 763 mmHg 66%
    12:00 +14°C° 0 mm 6 mps 763 mmHg 60%
    13:00 +14°C° 0 mm 6 mps 763 mmHg 61%
    14:00 +14°C° 0 mm 6 mps 762 mmHg 61%
    15:00 +14°C° 0 mm 6 mps 762 mmHg 62%
    16:00 +13°C° 0 mm 5 mps 762 mmHg 66%
    17:00 +12°C° 0 mm 5 mps 762 mmHg 71%
    18:00 +10°C° 0 mm 5 mps 762 mmHg 76%
    19:00 +9°C° 0 mm 5 mps 762 mmHg 78%
    20:00 +10°C° 0 mm 4 mps 762 mmHg 79%
    21:00 +10°C° 0 mm 4 mps 762 mmHg 81%
    22:00 +10°C° 0 mm 4 mps 762 mmHg 83%
    23:00 +8°C° 0 mm 4 mps 762 mmHg 84%

    Day after tomorrow, 24 October, Wednesday

    Time Temperature Precipitation Wind Pressure Humidity
    00:00 +8°C° 0 mm 4 mps 762 mmHg 86%
    01:00 +8°C° 0 mm 4 mps 762 mmHg 88%
    02:00 +8°C° 0 mm 4 mps 762 mmHg 90%
    03:00 +8°C° 0 mm 4 mps 762 mmHg 93%
    04:00 +9°C° 0 mm 3 mps 762 mmHg 93%
    05:00 +9°C° 0 mm 3 mps 761 mmHg 93%
    06:00 +9°C° 0 mm 3 mps 761 mmHg 94%
    07:00 +9°C° 0 mm 3 mps 761 mmHg 90%
    08:00 +10°C° 0 mm 3 mps 762 mmHg 86%
    09:00 +11°C° 0 mm 4 mps 762 mmHg 81%
    10:00 +12°C° 0 mm 4 mps 762 mmHg 76%
    11:00 +13°C° 0 mm 4 mps 761 mmHg 71%
    12:00 +14°C° 0 mm 4 mps 761 mmHg 65%
    13:00 +14°C° 0 mm 4 mps 761 mmHg 65%
    14:00 +14°C° 0 mm 3 mps 761 mmHg 65%
    15:00 +14°C° 0 mm 3 mps 760 mmHg 64%
    16:00 +13°C° 0 mm 3 mps 760 mmHg 71%
    17:00 +11°C° 0 mm 3 mps 760 mmHg 78%
    18:00 +10°C° 0 mm 3 mps 760 mmHg 84%
    19:00 +9°C° 0 mm 3 mps 760 mmHg 87%
    20:00 +8°C° 0 mm 3 mps 760 mmHg 90%
    21:00 +8°C° 0 mm 3 mps 760 mmHg 92%
    22:00 +7°C° 0 mm 2 mps 759 mmHg 93%
    23:00 +7°C° 0 mm 2 mps 759 mmHg 94%

    25 October, Thursday

    Time Temperature Precipitation Wind Pressure Humidity
    00:00 +6°C° 0 mm 2 mps 759 mmHg 95%
    01:00 +6°C° 0 mm 2 mps 759 mmHg 95%
    02:00 +6°C° 0 mm 2 mps 758 mmHg 95%
    03:00 +6°C° 0 mm 2 mps 758 mmHg 96%
    04:00 +6°C° 0 mm 2 mps 758 mmHg 96%
    05:00 +5°C° 0 mm 2 mps 757 mmHg 96%
    06:00 +5°C° 0 mm 2 mps 757 mmHg 96%
    07:00 +6°C° 0 mm 2 mps 757 mmHg 93%
    08:00 +7°C° 0 mm 2 mps 757 mmHg 90%
    09:00 +8°C° 0 mm 2 mps 757 mmHg 87%
    10:00 +9°C° 0 mm 2 mps 757 mmHg 81%
    11:00 +12°C° 0 mm 2 mps 756 mmHg 74%
    12:00 +13°C° 0 mm 2 mps 756 mmHg 68%
    13:00 +13°C° 0 mm 2 mps 755 mmHg 67%
    14:00 +13°C° 0 mm 2 mps 755 mmHg 65%
    15:00 +14°C° 0 mm 2 mps 754 mmHg 64%
    16:00 +12°C° 0 mm 2 mps 754 mmHg 69%
    17:00 +10°C° 0 mm 2 mps 753 mmHg 75%
    18:00 +9°C° 0 mm 2 mps 753 mmHg 80%
    19:00 +8°C° 0 mm 2 mps 752 mmHg 82%
    20:00 +8°C° 0 mm 2 mps 752 mmHg 83%
    21:00 +8°C° 0 mm 2 mps 752 mmHg 85%
    22:00 +8°C° 0 mm 2 mps 751 mmHg 87%
    23:00 +7°C° 0 mm 2 mps 751 mmHg 88%

    26 October, Friday

    Time Temperature Precipitation Wind Pressure Humidity
    00:00 +7°C° 0 mm 2 mps 750 mmHg 90%
    01:00 +7°C° 0 mm 3 mps 750 mmHg 91%
    02:00 +5°C° 0 mm 3 mps 749 mmHg 93%
    03:00 +5°C° 0 mm 3 mps 749 mmHg 94%
    04:00 +5°C° 0.1 mm 3 mps 748 mmHg 92%
    05:00 +6°C° 0.1 mm 4 mps 748 mmHg 90%
    06:00 +6°C° 0.1 mm 4 mps 748 mmHg 88%
    07:00 +6°C° 0 mm 5 mps 748 mmHg 82%
    08:00 +7°C° 0 mm 5 mps 748 mmHg 77%
    09:00 +7°C° 0 mm 6 mps 749 mmHg 71%
    10:00 +7°C° 0 mm 6 mps 749 mmHg 67%
    11:00 +8°C° 0 mm 6 mps 749 mmHg 62%
    12:00 +9°C° 0 mm 6 mps 749 mmHg 58%
    13:00 +8°C° 0 mm 6 mps 748 mmHg 59%
    14:00 +8°C° 0 mm 6 mps 748 mmHg 59%
    15:00 +8°C° 0 mm 6 mps 748 mmHg 59%
    16:00 +7°C° 0 mm 5 mps 748 mmHg 63%
    17:00 +6°C° 0 mm 4 mps 748 mmHg 68%
    18:00 +5°C° 0 mm 4 mps 748 mmHg 72%
    19:00 +5°C° 0.1 mm 4 mps 747 mmHg 74%
    20:00 +4°C° 0.1 mm 4 mps 747 mmHg 76%
    21:00 +3°C° 0.1 mm 5 mps 747 mmHg 78%
    22:00 +3°C° 0.4 mm 5 mps 746 mmHg 77%
    23:00 +2°C° 0.4 mm 5 mps 746 mmHg 76%

    27 October, Saturday

    Time Temperature Precipitation Wind Pressure Humidity
    00:00 +2°C° 0.4 mm 6 mps 746 mmHg 75%
    01:00 +1°C° 0 mm 5 mps 745 mmHg 77%
    02:00 +1°C° 0 mm 4 mps 745 mmHg 79%
    03:00 0°C° 0 mm 4 mps 744 mmHg 81%
    04:00 -1°C° 0 mm 4 mps 744 mmHg 81%
    05:00 -1°C° 0 mm 4 mps 744 mmHg 81%
    06:00 -1°C° 0 mm 4 mps 744 mmHg 82%
    07:00 -1°C° 0.2 mm 4 mps 744 mmHg 80%
    08:00 0°C° 0.2 mm 5 mps 744 mmHg 79%
    09:00 -1°C° 0.2 mm 6 mps 744 mmHg 77%
    10:00 +1°C° 0.8 mm 6 mps 744 mmHg 78%
    11:00 +2°C° 0.8 mm 6 mps 745 mmHg 78%
    12:00 +2°C° 0.8 mm 6 mps 745 mmHg 79%
    13:00 +2°C° 0.2 mm 7 mps 745 mmHg 78%
    14:00 +3°C° 0.2 mm 7 mps 745 mmHg 77%
    15:00 +2°C° 0.2 mm 8 mps 745 mmHg 75%
    16:00 +1°C° 0 mm 8 mps 745 mmHg 75%
    17:00 0°C° 0 mm 7 mps 746 mmHg 76%
    18:00 0°C° 0 mm 7 mps 746 mmHg 76%
    19:00 -1°C° 0 mm 7 mps 747 mmHg 76%
    20:00 -2°C° 0 mm 7 mps 747 mmHg 76%
    21:00 -2°C° 0 mm 6 mps 747 mmHg 76%
    22:00 -2°C° 0 mm 6 mps 748 mmHg 76%
    23:00 -3°C° 0 mm 6 mps 748 mmHg 76%

    28 October, Sunday

    Time Temperature Precipitation Wind Pressure Humidity
    00:00 -2°C° 0 mm 5 mps 748 mmHg 75%
    01:00 -2°C° 0 mm 5 mps 748 mmHg 77%
    02:00 -2°C° 0 mm 5 mps 747 mmHg 78%
    03:00 -2°C° 0 mm 5 mps 747 mmHg 80%
    04:00 -2°C° 0 mm 5 mps 748 mmHg 81%
    05:00 -1°C° 0 mm 5 mps 748 mmHg 83%
    06:00 -1°C° 0 mm 5 mps 748 mmHg 85%
    07:00 -1°C° 0 mm 6 mps 748 mmHg 81%
    08:00 +1°C° 0 mm 6 mps 749 mmHg 78%
    09:00 +2°C° 0 mm 6 mps 749 mmHg 75%
    10:00 +3°C° 0 mm 6 mps 749 mmHg 70%
    11:00 +4°C° 0 mm 7 mps 750 mmHg 66%
    12:00 +6°C° 0 mm 7 mps 750 mmHg 62%
    13:00 +5°C° 0 mm 6 mps 750 mmHg 63%
    14:00 +5°C° 0 mm 6 mps 750 mmHg 64%
    15:00 +6°C° 0 mm 5 mps 750 mmHg 65%
    16:00 +5°C° 0 mm 5 mps 750 mmHg 69%
    17:00 +3°C° 0 mm 5 mps 750 mmHg 73%
    18:00 +3°C° 0 mm 4 mps 750 mmHg 77%
    19:00 +1°C° 0 mm 4 mps 750 mmHg 79%
    20:00 +1°C° 0 mm 4 mps 750 mmHg 81%
    21:00 0°C° 0 mm 4 mps 750 mmHg 82%
    22:00 +1°C° 0 mm 3 mps 750 mmHg 84%
    23:00 0°C° 0 mm 3 mps 750 mmHg 85%
    Show more